sat.trackr.live / text

‹ back to catalog

STARLINK-4697

NORAD 53726 · 2022-107AC

PAYLOAD ACTIVE UNKNOWN

§ Identity

Operator
Country
US
Launch date
2022-09-05
Launch site
AFETR
Launch vehicle
Mass (kg)
RCS (m²)

Purposes: comms

External: N2YO · Heavens-Above · Gunter

§ Orbital elements

Epoch: 2026-05-24T18:54:58.139424Z

Period
95.44 min
Inclination
53.2149°
Eccentricity
0.0001285
Mean motion
15.08837557 rev/d
Perigee alt
538.9 km
Apogee alt
540.6 km
Semi-major
6,917.9 km
B*
3.5219e-5
RAAN
272.3738°
Arg perigee
90.6479°
Mean anomaly
269.4660°
Rev number
20,590

§ Raw data

STARLINK-46971 53726U 22107AC  26144.78817291  .00000273  00000+0  35219-4 0  99902 53726  53.2149 272.3738 0001285  90.6479 269.4660 15.08837557205900

JSON: /api/v1/satellites/53726 · /tle

For live sub-satellite position, see the globe view (requires WebGL).

§ Visibility from observer

Set your observer location to see the next 7 days of passes ≥ 10°. The values pass through the URL so the page stays shareable.

No JS? Fill the form by hand. The geolocation button needs JavaScript.